Location: ???????
(55.4362°N, 38.1183°E)
Time: 14:10:37
(UTC+00:00)

Cosmos 2369 Rocket - Visible Passes

Search period start: 22 October 2021 00:00
Search period end: 01 November 2021 00:00
Orbit: 830 x 851 km, 71.0° (Epoch: 22 October)

Date Brightness Start Highest point End Pass type
(mag) Time Alt. Az. Time Alt. Az. Time Alt. Az.
22 Oct 4.2 16:12:26 10° NW 16:15:57 17° N 16:18:57 12° NE visible
22 Oct 3.8 17:57:13 10° NNW 18:00:44 25° N 18:00:44 25° N visible
22 Oct 4.6 19:41:11 10° NNW 19:42:30 18° NNW 19:42:30 18° NNW visible
23 Oct 4.2 15:56:59 10° NW 16:00:30 17° N 16:03:48 11° NE visible
23 Oct 3.7 17:41:49 10° NNW 17:45:34 25° NNE 17:45:34 25° NNE visible
23 Oct 4.5 19:25:47 10° NNW 19:27:21 19° NNW 19:27:21 19° NNW visible
24 Oct 4.2 15:41:32 10° NW 15:45:03 16° N 15:48:33 10° NE visible
24 Oct 3.7 17:26:25 10° NNW 17:30:26 25° NNE 17:30:26 25° NNE visible
24 Oct 4.4 19:10:24 10° NNW 19:12:12 21° NNW 19:12:12 21° NNW visible
25 Oct 4.1 15:26:06 10° NW 15:29:36 16° N 15:33:05 10° NE visible
25 Oct 3.6 17:11:02 10° NNW 17:15:18 25° NNE 17:15:18 25° NNE visible
25 Oct 4.2 18:55:01 10° NNW 18:57:05 23° NNW 18:57:05 23° NNW visible
26 Oct 4.1 15:10:39 10° NW 15:14:08 16° N 15:17:37 10° NE visible
26 Oct 3.6 16:55:39 10° NNW 17:00:11 25° NNE 17:00:11 25° NNE visible
26 Oct 4.0 18:39:38 10° NNW 18:41:58 26° NNW 18:41:58 26° NNW visible
27 Oct 4.1 14:55:12 10° NW 14:58:41 16° N 15:02:10 10° NE visible
27 Oct 3.5 16:40:15 10° NNW 16:44:46 24° NNE 16:45:05 24° NNE visible
27 Oct 3.9 18:24:15 10° NNW 18:26:52 28° NNW 18:26:52 28° NNW visible
28 Oct 4.1 14:39:45 10° NW 14:43:13 16° N 14:46:43 10° NE visible
28 Oct 3.5 16:24:52 10° NNW 16:29:20 24° NNE 16:30:01 23° NE visible
28 Oct 3.7 18:08:52 10° NNW 18:11:47 31° NNW 18:11:47 31° NNW visible
28 Oct 5.0 19:53:17 10° NW 19:53:34 11° NW 19:53:34 11° NW visible
29 Oct 3.5 16:09:28 10° NNW 16:13:54 23° NNE 16:14:57 22° NE visible
29 Oct 3.5 17:53:29 10° NNW 17:56:44 34° NNW 17:56:44 34° NNW visible
29 Oct 4.9 19:37:52 10° NW 19:38:31 13° NW 19:38:31 13° NW visible
30 Oct 3.5 15:54:04 10° NNW 15:58:28 23° NNE 15:59:54 21° NE visible
30 Oct 3.2 17:38:05 10° NNW 17:41:41 38° N 17:41:41 38° N visible
30 Oct 4.8 19:22:26 10° NW 19:23:28 15° NW 19:23:28 15° NW visible
31 Oct 3.6 15:38:41 10° NNW 15:43:01 22° NNE 15:44:53 19° NE visible
31 Oct 3.0 17:22:42 10° NNW 17:26:40 42° N 17:26:40 42° N visible
31 Oct 4.6 19:07:01 10° NW 19:08:28 17° NW 19:08:28 17° NW visible
